Home > Weather > Luton > Past weeks

Flag for United Kingdom Weather for the Past 2 Weeks in Luton, England, United Kingdom

Now
34 °F

Chilly.


Feels Like: 25 °F
Forecast: N/A
Wind: 12 mph from North

Location: Luton Airport

Current Time: Feb 14, 2016 at 7:27:55 PM

Latest Report: Feb 14, 2016 at 6:50 PM


Visibility: N/A

Pressure: 29.68 "Hg

Humidity: 75%

Dew point: 27 °F

Location of LutonLocation

Historic Weather in Luton — Graph

°F

Luton Temperature Yesterday

Maximum temperature yesterday: 37 °F (at 9:50 AM)
Minimum temperature yesterday: 32 °F (at 2:20 AM)
Average temperature yesterday: 36 °F

High & Low Weather Summary for the Past Weeks

 TemperatureHumidityPressure
High55 °F (Feb 1, 2:20 PM)100% (Jan 31, 8:20 AM)30.33 "Hg (Jan 31, 8:20 AM)
Low30 °F (Feb 11, 7:20 AM)57% (Feb 2, 3:50 PM)28.97 "Hg (Feb 8, 5:50 AM)
Average42 °F88%29.59 "Hg
* Reported Jan 30 6:20 PM — Feb 14 6:20 PM, Luton, Weather by CustomWeather, © 2016

Note: Actual official high and low records may vary slightly from our data, if they occured in-between our weather recording intervals... More about our weather records

Advertising

Luton Weather History for the Previous 24 Hours

 ConditionsComfort  
Time TempWeatherWind HumidityBarometerVisibility
6:20 PM
Sun, Feb 14
36 °FPassing clouds.13 mph70%29.65 "HgN/A
5:50 PM36 °FPassing clouds.13 mph75%29.62 "HgN/A
5:20 PM36 °FChilly.15 mph75%29.59 "HgN/A
4:50 PM37 °FPassing clouds.15 mph70%29.59 "HgN/A
4:20 PM37 °FPassing clouds.15 mph65%29.56 "HgN/A
3:50 PM37 °FPartly sunny.17 mph65%29.56 "HgN/A
3:20 PM39 °FScattered clouds.21 mph61%29.53 "HgN/A
2:50 PM39 °FPassing clouds.17 mph65%29.50 "HgN/A
2:20 PM39 °FPartly sunny.16 mph70%29.50 "HgN/A
1:50 PM39 °FOvercast.18 mph70%29.47 "HgN/A
1:20 PM39 °FOvercast.21 mph70%29.45 "HgN/A
12:50 PM39 °FMostly cloudy.18 mph75%29.45 "HgN/A
12:20 PM41 °FPartly sunny.20 mph76%29.42 "HgN/A
11:50 AM41 °FPartly sunny.20 mph76%29.42 "HgN/A
11:20 AM41 °FScattered clouds.20 mph81%29.39 "HgN/A
10:50 AM39 °FPassing clouds.18 mph87%29.39 "HgN/A
10:20 AM37 °FPassing clouds.17 mph93%29.36 "HgN/A
9:50 AM37 °FScattered clouds.10 mph93%29.36 "HgN/A
9:20 AM36 °FChilly.12 mph93%29.33 "HgN/A
8:50 AM36 °FPartly sunny.12 mph93%29.33 "HgN/A
8:20 AM34 °FChilly.12 mph100%29.30 "HgN/A
7:20 AM34 °FChilly.10 mph100%29.27 "HgN/A
6:50 AM34 °FPassing clouds.10 mph100%29.27 "HgN/A
6:20 AM34 °FPassing clouds.9 mph100%29.24 "Hg5 mi
5:50 AM34 °FChilly.12 mph100%29.24 "Hg6 mi
5:20 AM34 °FChilly.12 mph100%29.21 "Hg5 mi
4:20 AM34 °FChilly.10 mph100%29.21 "Hg5 mi
3:50 AM34 °FPassing clouds.9 mph100%29.21 "Hg6 mi
3:20 AM34 °FChilly.7 mph100%29.18 "Hg6 mi
2:50 AM34 °FPassing clouds.10 mph100%29.18 "Hg5 mi
2:20 AM36 °FPassing clouds.10 mph100%29.18 "Hg5 mi
1:20 AM36 °FOvercast.9 mph100%29.18 "Hg4 mi
12:50 AM36 °FOvercast.9 mph100%29.18 "Hg4 mi
12:20 AM34 °FPassing clouds.8 mph100%29.15 "Hg4 mi
11:50 PM
Sat, Feb 13
36 °FChilly.8 mph100%29.15 "Hg4 mi
11:20 PM36 °FChilly.8 mph100%29.15 "Hg4 mi
10:50 PM36 °FChilly.8 mph100%29.15 "Hg4 mi
10:20 PM36 °FPassing clouds.9 mph100%29.15 "Hg4 mi
9:50 PM36 °FPassing clouds.9 mph100%29.15 "Hg4 mi
8:50 PM37 °FLight rain. Overcast.10 mph100%29.15 "Hg4 mi
8:20 PM37 °FDrizzle. Mostly cloudy.10 mph100%29.15 "Hg3 mi
7:50 PM37 °FLight rain. Passing clouds.12 mph100%29.15 "Hg4 mi
7:20 PM37 °FLight rain. Mostly cloudy.10 mph100%29.12 "Hg4 mi
Weather by CustomWeather, © 2016

See weather overviewHow to use our weather pages